Location: Boussy-Saint-Antoine
(48.6830°N, 2.5330°E)
Time: 23:22:38
(UTC+02:00)

ISS - Visible Passes

Search period start: 18 October 2019 00:00
Search period end: 27 October 2019 23:00
Orbit: 411 x 421 km, 51.6° (Epoch: 19 October)

Date Brightness Start Highest point End Pass type
(mag) Time Alt. Az. Time Alt. Az. Time Alt. Az.
23 Oct -0.7 07:37:33 10° SSE 07:39:16 13° SE 07:40:59 10° ESE visible
25 Oct -1.8 07:35:32 10° SSW 07:38:29 29° SE 07:41:26 10° E visible
26 Oct -1.2 06:47:34 10° S 06:50:02 19° SE 06:52:31 10° E visible
27 Oct -0.9 05:00:52 12° SSE 05:01:38 12° SE 05:03:08 10° ESE visible
27 Oct -3.3 06:34:29 10° SW 06:37:49 60° SSE 06:41:09 10° ENE visible
